Overview Statistics Trail Chart Weather Telemetry Raw packets
 

This is the latest recevied weather packets stored in our database for station/object KF7SOJ. If no packets are shown the sender has not sent any weather packets the latest 10 day(s).

<< 8 9 10 11 12 13 14 >>
Time Temp. Humidity Pressure Rain* Wind** Luminosity Snow
1788558922 34.44° C 12% 925.4 hPa 0 mm - 613 W/m² -
1788558618 33.89° C 12% 925.1 hPa 0 mm - 625 W/m² -
1788558313 33.89° C 12% 925.2 hPa 0 mm - 639 W/m² -
1788558008 34.44° C 12% 925.2 hPa 0 mm - 652 W/m² -
1788557706 33.89° C 12% 925.1 hPa 0 mm - 665 W/m² -
1788557404 34.44° C 12% 925.1 hPa 0 mm - 679 W/m² -
1788557102 34.44° C 12% 925.2 hPa 0 mm - 695 W/m² -
1788556798 33.89° C 12% 925.2 hPa 0 mm - 705 W/m² -
1788556492 33.89° C 12% 925 hPa 0 mm - 711 W/m² -
1788556188 33.89° C 12% 925.1 hPa 0 mm - 724 W/m² -
1788555886 33.89° C 12% 925.1 hPa 0 mm - 733 W/m² -
1788555582 33.89° C 12% 925.2 hPa 0 mm - 742 W/m² -
1788555278 33.89° C 12% 925 hPa 0 mm - 751 W/m² -
1788554975 34.44° C 12% 925.3 hPa 0 mm - 758 W/m² -
1788554670 33.89° C 11% 925.1 hPa 0 mm - 767 W/m² -
1788554366 33.89° C 13% 925 hPa 0 mm - 774 W/m² -
1788554063 33.33° C 13% 925 hPa 0 mm - 779 W/m² -
1788553758 33.89° C 13% 925.2 hPa 0 mm - 784 W/m² -
1788553454 33.89° C 12% 925.1 hPa 0 mm - 800 W/m² -
1788553151 33.89° C 12% 925.3 hPa 0 mm - 800 W/m² -
1788552845 33.33° C 12% 925.4 hPa 0 mm - 804 W/m² -
1788552540 33.89° C 12% 925.2 hPa 0 mm - 809 W/m² -
1788552239 33.89° C 12% 925.1 hPa 0 mm - 816 W/m² -
1788551933 33.33° C 14% 925.1 hPa 0 mm - 819 W/m² -
1788551632 33.33° C 13% 925 hPa 0 mm - 824 W/m² -

* Rain latest hour (hover to see other rain measurements)
** Current wind speed in m/s (hover to see current wind gust speed)